Regional Weather Roundup
Issued by NWS Northern Indiana

Home | Current Version | Previous Version | Graphics & Text | Print | Product List | Glossary On
Versions: 1 2 3 4 5 6 7 8 9 10 11 12 13 14 15 16 17 18 19 20 21 22 23 24 25 26 27 28 29 30 31 32 33 34 35 36 37 38 39 40 41 42 43 44 45 46 47 48 49 50
000
ASUS43 KIWX 050700
RWRIWX

KIWX WEATHER ROUNDUP
NATIONAL WEATHER SERVICE NORTHERN INDIANA
300 AM EDT SUN JUL 05 2015

NOTE: "FAIR" INDICATES FEW OR NO CLOUDS BELOW 12,000 FEET WITH NO
SIGNIFICANT WEATHER AND/OR OBSTRUCTIONS TO VISIBILITY.

* THESE STATIONS ARE NOT UNDER NWS QUALITY CONTROL. THEY ALSO MAY NOT
  REPORT WEATHER SUCH AS PRECIPITATION OR FOG.

INZ001>027-050800-
NORTHERN INDIANA

CITY           SKY/WX    TMP DP  RH WIND       PRES   REMARKS
SOUTH BEND     FAIR      61  57  87 CALM      30.07R FOG
GOSHEN         FOG       59  57  93 CALM      30.06S VSB 1
ANGOLA*          N/A     59  57  94 CALM      30.08R
FORT WAYNE     FAIR      62  59  90 CALM      30.08S
PERU/GRISSOM   FAIR      62  60  94 SE2       30.06S

$$
INZ028>050-050800-
CENTRAL INDIANA

CITY           SKY/WX    TMP DP  RH WIND       PRES   REMARKS
LAFAYETTE      FAIR      61  59  93 CALM      30.06R FOG
KOKOMO*        FAIR      63  59  88 CALM      30.07S
MUNCIE*        FAIR      63  60  90 CALM      30.07F
INDIANAPOLIS   FAIR      68  59  73 NE6       30.05S HAZE

$$
MIZ043>046-050>051-056>058-064>065-071>073-077>080-050800-
SOUTHWEST LOWER MICHIGAN

CITY           SKY/WX    TMP DP  RH WIND       PRES   REMARKS
BATTLE CREEK   FAIR      61  58  90 CALM      30.08R
BENTON HARBOR  FAIR      55  53  93 CALM      30.05R FOG
COLDWATER*     FAIR      57  57  98 CALM      30.08R FOG
HILLSDALE*     FAIR      58  58 100 CALM      30.09R FOG
HOLLAND        FAIR      60  57  89 CALM      30.07R
GRAND RAPIDS   FAIR      61  57  87 CALM      30.07R FOG
KALAMAZOO      FAIR      60  57  89 CALM      30.07R FOG
STURGIS*       FAIR      61  59  94 CALM      30.06S FOG
THREE RIVERS*    N/A     60  58  94 CALM      30.07S FOG

$$
OHZ001>008-015>018-024>025-050800-
NORTHWEST OHIO

CITY           SKY/WX    TMP DP  RH WIND       PRES   REMARKS
DEFIANCE       FAIR      62  59  90 CALM      30.07S
FINDLAY        FAIR      63  57  81 CALM      30.07S
TOLEDO EXPRESS FAIR      57  54  89 CALM      30.07S
TOLEDO METCALF FAIR      61  54  77 CALM      30.08S
LIMA           FAIR      62  58  86 S5        30.08S

$$
AND FOR LAKE MICHIGAN COASTAL AND OPEN LAKE BUOY OBSERVATIONS

STATION/POSITION TEMP    WIND        PRES    VSBY  WAVE
                 AIR SEA DIR/SP/G                  HT/PER
                 (F)     (DEG/KT/KT) (MB)    (MI)  (FT/S)
CALUMET HARBOR    66        CALM       N/A
MICHIGAN CITY     69     130/  9/ 11   N/A
BURNS HARBOR      69     190/  6/  7 1017.9R
SAINT JOSEPH      65     110/  1/  2   N/A
4 MI NW BRIDGMAN  66 64                N/A           0
MICHIGAN CITY     65 64  160/  4/  4   N/A           0

$$
&&



USA.gov is the U.S. government's official web portal to all federal, state and local government web resources and services.